Weather History for Ruidoso, NM

Change the Weather History Date:

Thursday, February 14, 2013

  Actual Average Record
Temperature  
Mean Temperature 37 °F -  
Max Temperature 48 °F 50 °F 66 °F (2000)
Min Temperature 26 °F 30 °F 19 °F (1997)
Degree Days  
Heating Degree Days 28    
Moisture  
Dew Point 9 °F    
Average Humidity 34    
Maximum Humidity 64    
Minimum Humidity 13    
Precipitation  
Precipitation 0.00 in - - ()
Sea Level Pressure  
Sea Level Pressure 30.10 in    
Wind  
Wind Speed 11 mph (NW)    
Max Wind Speed 23 mph    
Max Gust Speed 31 mph    
Visibility 10 miles    
Events      
Averages and records for this station are not official NWS values.
T = Trace of Precipitation, MM = Missing Value Source: NWS Daily Summary

Daily Weather History Graph

Daily Weather History Graph

Search for Another Location

Airport:

Trip Planner

Search our weather history database for the weather conditions in past years. The results will help you decide how hot, cold, wet, or windy it might be!

Date:

Astronomy

Feb. 14, 2013 Rise Set
Actual Time 6:46 AM MST 5:46 PM MST
Civil Twilight 6:21 AM MST 6:11 PM MST
Nautical Twilight 5:52 AM MST 6:40 PM MST
Astronomical Twilight 5:23 AM MST 7:09 PM MST
Moon 9:07 AM MST (2/14) 10:33 PM MST (2/14)
Length of Visible Light 11h 50m
Length of Day
10h 59m
Waxing Crescent, 22% of the Moon is Illuminated
Feb 14
Waxing Crescent
Feb 17
First Quarter
Feb 25
Full
Mar 4
Last Quarter
Mar 11
New

Hourly Weather History & Observations

Time (MST) Temp. Windchill Dew Point Humidity Pressure Visibility Wind Dir Wind Speed Gust Speed Precip Events Conditions
12:15 AM 35.6 °F 25.2 °F 10.4 °F 35% 30.06 in 10.0 mi WNW 18.4 mph 28.8 mph N/A   Clear
12:35 AM 35.6 °F 27.5 °F 10.4 °F 35% 30.07 in 10.0 mi WNW 11.5 mph 19.6 mph N/A   Clear
12:55 AM 35.6 °F 26.6 °F 10.4 °F 35% 30.06 in 10.0 mi NW 13.8 mph 21.9 mph N/A   Clear
1:15 AM 35.6 °F 27.1 °F 10.4 °F 35% 30.06 in 10.0 mi NW 12.7 mph 20.7 mph N/A   Clear
1:35 AM 33.8 °F 23.9 °F 10.4 °F 38% 30.06 in 10.0 mi WNW 15.0 mph 19.6 mph N/A   Clear
1:55 AM 33.8 °F 23.9 °F 10.4 °F 38% 30.06 in 10.0 mi NW 15.0 mph 21.9 mph N/A   Clear
2:15 AM 33.8 °F 24.8 °F 10.4 °F 38% 30.06 in 10.0 mi WNW 12.7 mph 23.0 mph N/A   Clear
2:35 AM 32.0 °F 24.2 °F 10.4 °F 41% 30.06 in 10.0 mi WNW 9.2 mph 16.1 mph N/A   Clear
2:55 AM 32.0 °F 23.0 °F 10.4 °F 41% 30.05 in 10.0 mi NW 11.5 mph 16.1 mph N/A   Clear
3:15 AM 32.0 °F 24.8 °F 10.4 °F 41% 30.05 in 10.0 mi NW 8.1 mph - N/A   Clear
3:35 AM 32.0 °F 26.4 °F 10.4 °F 41% 30.05 in 10.0 mi West 5.8 mph - N/A   Clear
3:55 AM 32.0 °F 25.6 °F 10.4 °F 41% 30.05 in 10.0 mi NW 6.9 mph - N/A   Clear
4:15 AM 28.4 °F 23.3 °F 10.4 °F 47% 30.06 in 10.0 mi South 4.6 mph - N/A   Clear
4:35 AM 30.2 °F 24.3 °F 10.4 °F 44% 30.06 in 10.0 mi South 5.8 mph - N/A   Clear
4:55 AM 30.2 °F 26.7 °F 10.4 °F 44% 30.06 in 10.0 mi NW 3.5 mph - N/A   Clear
5:15 AM 32.0 °F 28.7 °F 10.4 °F 41% 30.06 in 10.0 mi North 3.5 mph - N/A   Clear
5:35 AM 28.4 °F 23.3 °F 12.2 °F 51% 30.06 in 10.0 mi NNE 4.6 mph - N/A   Clear
5:55 AM 28.4 °F 21.2 °F 12.2 °F 51% 30.06 in 10.0 mi NW 6.9 mph - N/A   Clear
6:15 AM 28.4 °F 20.4 °F 10.4 °F 47% 30.06 in 10.0 mi NW 8.1 mph - N/A   Clear
6:35 AM 30.2 °F 19.3 °F 10.4 °F 44% 30.06 in 10.0 mi NW 15.0 mph 21.9 mph N/A   Clear
6:55 AM 30.2 °F 20.2 °F 10.4 °F 44% 30.07 in 10.0 mi NNW 12.7 mph 19.6 mph N/A   Clear
7:15 AM 26.6 °F - 10.4 °F 51% 30.08 in 10.0 mi Calm Calm - N/A   Clear
7:35 AM 30.2 °F 22.6 °F 10.4 °F 44% 30.09 in 10.0 mi WNW 8.1 mph - N/A   Clear
8:15 AM 32.0 °F 22.5 °F 12.2 °F 44% 30.11 in 10.0 mi WNW 12.7 mph 19.6 mph N/A   Clear
8:55 AM 35.6 °F 28.0 °F 12.2 °F 38% 30.11 in 10.0 mi NNW 10.4 mph 18.4 mph N/A   Clear
9:15 AM 37.4 °F 32.1 °F 12.2 °F 36% 30.11 in 10.0 mi NNW 6.9 mph - N/A   Clear
9:35 AM 37.4 °F 30.8 °F 12.2 °F 36% 30.11 in 10.0 mi NNW 9.2 mph 16.1 mph N/A   Clear
9:55 AM 39.2 °F 32.0 °F 10.4 °F 31% 30.10 in 10.0 mi WNW 11.5 mph - N/A   Clear
10:15 AM 41.0 °F 33.1 °F 12.2 °F 31% 30.10 in 10.0 mi NW 15.0 mph 20.7 mph N/A   Clear
10:35 AM 41.0 °F 34.7 °F 12.2 °F 31% 30.11 in 10.0 mi NW 10.4 mph 16.1 mph N/A   Clear
10:55 AM 41.0 °F 34.3 °F 12.2 °F 31% 30.10 in 10.0 mi NW 11.5 mph 17.3 mph N/A   Clear
11:15 AM 44.6 °F 38.8 °F 10.4 °F 25% 30.09 in 10.0 mi NW 11.5 mph - N/A   Clear
11:35 AM 46.4 °F 41.9 °F 10.4 °F 23% 30.08 in 10.0 mi NNW 9.2 mph - N/A   Clear
11:55 AM 46.4 °F 40.7 °F 10.4 °F 23% 30.07 in 10.0 mi NNW 12.7 mph 20.7 mph N/A   Clear
12:15 PM 46.4 °F 40.4 °F 8.6 °F 22% 30.06 in 10.0 mi NW 13.8 mph 21.9 mph N/A   Clear
12:35 PM 46.4 °F 39.2 °F 6.8 °F 20% 30.06 in 10.0 mi NW 18.4 mph 27.6 mph N/A   Clear
12:55 PM 46.4 °F 38.7 °F 10.4 °F 23% 30.05 in 10.0 mi NW 20.7 mph 28.8 mph N/A   Clear
1:15 PM 46.4 °F 38.7 °F 8.6 °F 22% 30.04 in 10.0 mi NW 20.7 mph 28.8 mph N/A   Clear
1:35 PM 46.4 °F 39.5 °F 8.6 °F 22% 30.05 in 10.0 mi NW 17.3 mph 31.1 mph N/A   Clear
1:55 PM 46.4 °F 40.1 °F 10.4 °F 23% 30.05 in 10.0 mi NW 15.0 mph 25.3 mph N/A   Clear
2:15 PM 46.4 °F 41.5 °F 8.6 °F 22% 30.05 in 10.0 mi NNW 10.4 mph 20.7 mph N/A   Clear
2:35 PM 48.2 °F - 8.6 °F 20% 30.05 in 10.0 mi NNW 15.0 mph 20.7 mph N/A   Clear
2:55 PM 46.4 °F 38.3 °F 10.4 °F 23% 30.06 in 10.0 mi North 23.0 mph 31.1 mph N/A   Clear
3:15 PM 46.4 °F 40.1 °F 8.6 °F 22% 30.07 in 10.0 mi North 15.0 mph 26.5 mph N/A   Clear
3:35 PM 46.4 °F 39.5 °F 6.8 °F 20% 30.08 in 10.0 mi NW 17.3 mph 24.2 mph N/A   Clear
3:55 PM 46.4 °F 39.8 °F 5.0 °F 18% 30.08 in 10.0 mi WNW 16.1 mph 24.2 mph N/A   Clear
4:15 PM 46.4 °F 40.4 °F -0.4 °F 14% 30.09 in 10.0 mi NW 13.8 mph 21.9 mph N/A   Clear
4:35 PM 46.4 °F 41.1 °F -2.2 °F 13% 30.08 in 10.0 mi WNW 11.5 mph 18.4 mph N/A   Clear
4:55 PM 44.6 °F 37.2 °F -2.2 °F 14% 30.08 in 10.0 mi NNW 17.3 mph 25.3 mph N/A   Clear
5:15 PM 42.8 °F 37.0 °F -0.4 °F 16% 30.08 in 10.0 mi NW 10.4 mph 26.5 mph N/A   Clear
5:35 PM 41.0 °F 34.3 °F 1.4 °F 19% 30.08 in 10.0 mi NW 11.5 mph - N/A   Clear
5:55 PM 41.0 °F 33.5 °F -0.4 °F 18% 30.09 in 10.0 mi NW 13.8 mph 21.9 mph N/A   Clear
6:15 PM 39.2 °F 31.6 °F 1.4 °F 21% 30.10 in 10.0 mi NW 12.7 mph 20.7 mph N/A   Clear
6:35 PM 39.2 °F 34.2 °F 3.2 °F 22% 30.11 in 10.0 mi NW 6.9 mph - N/A   Clear
6:55 PM 37.4 °F 32.1 °F 5.0 °F 26% 30.11 in 10.0 mi WNW 6.9 mph - N/A   Clear
7:15 PM 37.4 °F 32.1 °F 6.8 °F 28% 30.12 in 10.0 mi NNW 6.9 mph - N/A   Clear
7:35 PM 35.6 °F 31.7 °F 6.8 °F 30% 30.13 in 10.0 mi NW 4.6 mph - N/A   Clear
7:55 PM 35.6 °F 32.8 °F 8.6 °F 33% 30.13 in 10.0 mi WSW 3.5 mph - N/A   Clear
8:15 PM 32.0 °F - 8.6 °F 38% 30.13 in 10.0 mi Calm Calm - N/A   Clear
8:35 PM 35.6 °F 31.7 °F 8.6 °F 33% 30.14 in 10.0 mi NW 4.6 mph - N/A   Clear
8:55 PM 35.6 °F 29.9 °F 10.4 °F 35% 30.16 in 10.0 mi NNW 6.9 mph - N/A   Clear
9:15 PM 35.6 °F 29.9 °F 10.4 °F 35% 30.18 in 10.0 mi NW 6.9 mph - N/A   Clear
9:35 PM 33.8 °F 26.4 °F 10.4 °F 38% 30.18 in 10.0 mi NW 9.2 mph - N/A   Clear
9:55 PM 33.8 °F 28.6 °F 10.4 °F 38% 30.20 in 10.0 mi NNW 5.8 mph - N/A   Clear
10:15 PM 32.0 °F 25.6 °F 10.4 °F 41% 30.20 in 10.0 mi NW 6.9 mph - N/A   Clear
10:35 PM 32.0 °F 27.5 °F 10.4 °F 41% 30.20 in 10.0 mi NW 4.6 mph - N/A   Clear
10:55 PM 30.2 °F 22.6 °F 14.0 °F 51% 30.21 in 10.0 mi SE 8.1 mph - N/A   Clear
11:15 PM 30.2 °F 21.9 °F 15.8 °F 55% 30.22 in 10.0 mi SSE 9.2 mph - N/A   Clear
11:35 PM 28.4 °F 19.7 °F 17.6 °F 64% 30.23 in 10.0 mi South 9.2 mph - N/A   Clear
11:55 PM 28.4 °F 18.5 °F 17.6 °F 64% 30.25 in 10.0 mi SE 11.5 mph 17.3 mph N/A   Clear